Time,TemperatureF,DewpointF,PressureIn,WindDirection,WindDirectionDegrees,WindSpeedMPH,WindSpeedGustMPH,Humidity,HourlyPrecipIn,Conditions,Clouds,dailyrainin,SoftwareType,DateUTC
2013-06-25 00:01:00,70.0,41.0,29.50,WNW,285,0.0,0.0,35,0.00,,,0.00,,2013-06-25 06:01:00,
2013-06-25 00:11:00,70.0,41.0,29.50,WNW,285,0.0,0.0,35,0.00,,,0.00,,2013-06-25 06:11:00,
2013-06-25 00:21:00,70.0,42.0,29.49,WNW,284,0.0,0.0,36,0.00,,,0.00,,2013-06-25 06:21:00,
2013-06-25 00:33:00,69.0,42.0,29.49,WNW,284,0.0,0.0,38,0.00,,,0.00,,2013-06-25 06:33:00,
2013-06-25 00:43:00,69.0,42.0,29.49,WNW,284,0.0,0.0,38,0.00,,,0.00,,2013-06-25 06:43:00,
2013-06-25 00:52:00,68.0,41.0,29.50,WNW,284,0.0,3.0,38,0.00,,,0.00,,2013-06-25 06:52:00,
2013-06-25 01:02:00,67.0,41.0,29.51,North,5,0.0,0.0,39,0.00,,,0.00,,2013-06-25 07:02:00,
2013-06-25 01:11:00,67.0,41.0,29.51,North,5,0.0,0.0,39,0.00,,,0.00,,2013-06-25 07:11:00,
2013-06-25 01:22:00,67.0,43.0,29.51,North,5,0.0,0.0,42,0.00,,,0.00,,2013-06-25 07:22:00,
2013-06-25 01:33:00,66.0,42.0,29.51,North,5,0.0,0.0,41,0.00,,,0.00,,2013-06-25 07:33:00,
2013-06-25 01:43:00,66.0,42.0,29.51,North,5,0.0,0.0,41,0.00,,,0.00,,2013-06-25 07:43:00,
2013-06-25 01:52:00,67.0,43.0,29.50,North,5,0.0,0.0,41,0.00,,,0.00,,2013-06-25 07:52:00,
2013-06-25 02:01:00,67.0,42.0,29.50,North,5,0.0,0.0,40,0.00,,,0.00,,2013-06-25 08:01:00,
2013-06-25 02:11:00,67.0,42.0,29.50,North,5,0.0,0.0,40,0.00,,,0.00,,2013-06-25 08:11:00,
2013-06-25 02:21:00,66.0,41.0,29.51,North,5,0.0,0.0,40,0.00,,,0.00,,2013-06-25 08:21:00,
2013-06-25 02:34:00,67.0,38.0,29.51,North,5,0.0,2.0,35,0.00,,,0.00,,2013-06-25 08:34:00,
2013-06-25 02:43:00,67.0,38.0,29.51,North,5,0.0,2.0,35,0.00,,,0.00,,2013-06-25 08:43:00,
2013-06-25 02:53:00,67.0,38.0,29.51,North,5,0.0,0.0,35,0.00,,,0.00,,2013-06-25 08:53:00,
2013-06-25 03:02:00,67.0,40.0,29.51,North,5,0.0,0.0,37,0.00,,,0.00,,2013-06-25 09:02:00,
2013-06-25 03:12:00,67.0,40.0,29.51,North,5,0.0,0.0,37,0.00,,,0.00,,2013-06-25 09:12:00,
2013-06-25 03:22:00,66.0,40.0,29.51,North,5,0.0,1.0,39,0.00,,,0.00,,2013-06-25 09:22:00,
2013-06-25 03:33:00,66.0,40.0,29.51,North,5,0.0,2.0,38,0.00,,,0.00,,2013-06-25 09:33:00,
2013-06-25 03:43:00,66.0,40.0,29.51,North,5,0.0,2.0,38,0.00,,,0.00,,2013-06-25 09:43:00,
2013-06-25 03:53:00,66.0,39.0,29.52,ESE,119,0.0,3.0,37,0.00,,,0.00,,2013-06-25 09:53:00,
2013-06-25 04:01:00,65.0,39.0,29.52,ESE,119,0.0,0.0,38,0.00,,,0.00,,2013-06-25 10:01:00,
2013-06-25 04:11:00,65.0,39.0,29.52,ESE,119,0.0,0.0,38,0.00,,,0.00,,2013-06-25 10:11:00,
2013-06-25 04:21:00,64.0,39.0,29.52,SE,129,0.0,0.0,40,0.00,,,0.00,,2013-06-25 10:21:00,
2013-06-25 04:33:00,63.0,39.0,29.52,SE,129,0.0,0.0,41,0.00,,,0.00,,2013-06-25 10:33:00,
2013-06-25 04:42:00,63.0,39.0,29.52,SE,129,0.0,0.0,41,0.00,,,0.00,,2013-06-25 10:42:00,
2013-06-25 04:52:00,62.0,37.0,29.53,SE,129,0.0,0.0,39,0.00,,,0.00,,2013-06-25 10:52:00,
2013-06-25 05:02:00,61.0,38.0,29.53,SE,129,0.0,0.0,42,0.00,,,0.00,,2013-06-25 11:02:00,
2013-06-25 05:11:00,61.0,38.0,29.53,SE,129,0.0,0.0,42,0.00,,,0.00,,2013-06-25 11:11:00,
2013-06-25 05:22:00,60.0,38.0,29.54,SE,129,0.0,0.0,44,0.00,,,0.00,,2013-06-25 11:22:00,
2013-06-25 05:34:00,59.0,39.0,29.54,SE,146,0.0,3.0,47,0.00,,,0.00,,2013-06-25 11:34:00,
2013-06-25 05:43:00,59.0,39.0,29.54,SE,146,0.0,3.0,47,0.00,,,0.00,,2013-06-25 11:43:00,
2013-06-25 05:52:00,59.0,36.0,29.54,South,187,0.0,5.0,42,0.00,,,0.00,,2013-06-25 11:52:00,
2013-06-25 06:01:00,59.0,35.0,29.54,WSW,252,0.0,0.0,40,0.00,,,0.00,,2013-06-25 12:01:00,
2013-06-25 06:11:00,59.0,35.0,29.54,WSW,252,0.0,0.0,40,0.00,,,0.00,,2013-06-25 12:11:00,
2013-06-25 06:22:00,60.0,34.0,29.55,WSW,252,0.0,3.0,37,0.00,,,0.00,,2013-06-25 12:22:00,
2013-06-25 06:33:00,61.0,33.0,29.55,WSW,252,0.0,1.0,35,0.00,,,0.00,,2013-06-25 12:33:00,
2013-06-25 06:43:00,61.0,33.0,29.55,WSW,252,0.0,1.0,35,0.00,,,0.00,,2013-06-25 12:43:00,
2013-06-25 06:55:00,62.0,34.0,29.56,SSE,157,0.0,3.0,35,0.00,,,0.00,,2013-06-25 12:55:00,
2013-06-25 07:01:00,63.0,33.0,29.57,South,173,0.0,5.0,33,0.00,,,0.00,,2013-06-25 13:01:00,
2013-06-25 07:11:00,63.0,33.0,29.57,South,173,0.0,5.0,33,0.00,,,0.00,,2013-06-25 13:11:00,
2013-06-25 07:22:00,63.0,36.0,29.57,South,171,0.0,1.0,36,0.00,,,0.00,,2013-06-25 13:22:00,
2013-06-25 07:34:00,64.0,37.0,29.57,South,178,0.0,4.0,36,0.00,,,0.00,,2013-06-25 13:34:00,
2013-06-25 07:42:00,64.0,37.0,29.57,South,178,0.0,4.0,36,0.00,,,0.00,,2013-06-25 13:42:00,
2013-06-25 07:53:00,66.0,35.0,29.57,SSE,159,0.0,3.0,32,0.00,,,0.00,,2013-06-25 13:53:00,
2013-06-25 08:01:00,68.0,38.0,29.59,North,360,2.0,6.0,33,0.00,,,0.00,,2013-06-25 14:01:00,
2013-06-25 08:11:00,68.0,38.0,29.59,North,360,2.0,6.0,33,0.00,,,0.00,,2013-06-25 14:11:00,
2013-06-25 08:22:00,68.0,36.0,29.60,West,271,0.0,5.0,31,0.00,,,0.00,,2013-06-25 14:22:00,
2013-06-25 08:34:00,69.0,37.0,29.60,West,271,0.0,1.0,31,0.00,,,0.00,,2013-06-25 14:34:00,
2013-06-25 08:43:00,69.0,37.0,29.60,West,271,0.0,1.0,31,0.00,,,0.00,,2013-06-25 14:43:00,
2013-06-25 08:53:00,71.0,40.0,29.60,SE,134,1.0,3.0,32,0.00,,,0.00,,2013-06-25 14:53:00,
2013-06-25 09:01:00,73.0,40.0,29.60,South,185,0.0,2.0,30,0.00,,,0.00,,2013-06-25 15:01:00,
2013-06-25 09:11:00,73.0,40.0,29.60,South,185,0.0,2.0,30,0.00,,,0.00,,2013-06-25 15:11:00,
2013-06-25 09:22:00,74.0,42.0,29.60,South,184,0.0,2.0,32,0.00,,,0.00,,2013-06-25 15:22:00,
2013-06-25 09:32:00,75.0,39.0,29.59,West,272,1.0,3.0,27,0.00,,,0.00,,2013-06-25 15:32:00,
2013-06-25 09:44:00,75.0,39.0,29.59,West,272,1.0,3.0,27,0.00,,,0.00,,2013-06-25 15:44:00,
2013-06-25 09:53:00,77.0,39.0,29.59,West,278,0.0,3.0,26,0.00,,,0.00,,2013-06-25 15:53:00,
2013-06-25 10:03:00,77.0,35.0,29.59,West,271,3.0,9.0,22,0.00,,,0.00,,2013-06-25 16:03:00,
2013-06-25 10:12:00,77.0,35.0,29.59,West,271,3.0,9.0,22,0.00,,,0.00,,2013-06-25 16:12:00,
2013-06-25 10:23:00,78.0,36.0,29.59,SSW,210,1.0,5.0,22,0.00,,,0.00,,2013-06-25 16:23:00,
2013-06-25 10:35:00,78.0,39.0,29.60,WSW,257,0.0,0.0,25,0.00,,,0.00,,2013-06-25 16:35:00,
2013-06-25 10:44:00,78.0,39.0,29.60,WSW,257,0.0,0.0,25,0.00,,,0.00,,2013-06-25 16:44:00,
2013-06-25 10:52:00,81.0,39.0,29.60,South,171,0.0,0.0,22,0.00,,,0.00,,2013-06-25 16:52:00,
2013-06-25 11:01:00,82.0,33.0,29.60,North,355,1.0,4.0,17,0.00,,,0.00,,2013-06-25 17:01:00,
2013-06-25 11:11:00,82.0,33.0,29.60,North,355,1.0,4.0,17,0.00,,,0.00,,2013-06-25 17:11:00,
2013-06-25 11:22:00,83.0,32.0,29.60,WNW,300,2.0,6.0,16,0.00,,,0.00,,2013-06-25 17:22:00,
2013-06-25 11:33:00,83.0,32.0,29.60,North,9,0.0,6.0,16,0.00,,,0.00,,2013-06-25 17:33:00,
2013-06-25 11:44:00,83.0,32.0,29.60,North,9,0.0,6.0,16,0.00,,,0.00,,2013-06-25 17:44:00,
2013-06-25 11:53:00,85.0,30.0,29.60,NNE,16,1.0,7.0,14,0.00,,,0.00,,2013-06-25 17:53:00,
2013-06-25 12:02:00,84.0,33.0,29.60,North,5,2.0,10.0,16,0.00,,,0.00,,2013-06-25 18:02:00,
2013-06-25 12:12:00,84.0,33.0,29.60,North,5,2.0,10.0,16,0.00,,,0.00,,2013-06-25 18:12:00,
2013-06-25 12:22:00,85.0,30.0,29.60,NNE,33,2.0,7.0,14,0.00,,,0.00,,2013-06-25 18:22:00,
2013-06-25 12:34:00,87.0,30.0,29.59,NNW,334,2.0,7.0,13,0.00,,,0.00,,2013-06-25 18:34:00,
2013-06-25 12:44:00,87.0,30.0,29.59,NNW,334,2.0,7.0,13,0.00,,,0.00,,2013-06-25 18:44:00,
2013-06-25 12:53:00,85.0,30.0,29.59,West,277,0.0,5.0,14,0.00,,,0.00,,2013-06-25 18:53:00,
2013-06-25 13:01:00,87.0,34.0,29.59,ESE,105,0.0,4.0,15,0.00,,,0.00,,2013-06-25 19:01:00,
2013-06-25 13:12:00,87.0,34.0,29.59,ESE,105,0.0,4.0,15,0.00,,,0.00,,2013-06-25 19:12:00,
2013-06-25 13:22:00,87.0,32.0,29.59,SE,124,1.0,9.0,14,0.00,,,0.00,,2013-06-25 19:22:00,
2013-06-25 13:33:00,87.0,35.0,29.59,NE,38,2.0,8.0,16,0.00,,,0.00,,2013-06-25 19:33:00,
2013-06-25 13:44:00,87.0,35.0,29.59,NE,38,2.0,8.0,16,0.00,,,0.00,,2013-06-25 19:44:00,
2013-06-25 13:54:00,87.0,32.0,29.59,East,80,1.0,7.0,14,0.00,,,0.00,,2013-06-25 19:54:00,
2013-06-25 14:02:00,87.0,35.0,29.59,NNW,347,2.0,5.0,16,0.00,,,0.00,,2013-06-25 20:02:00,
2013-06-25 14:11:00,87.0,35.0,29.59,NNW,347,2.0,5.0,16,0.00,,,0.00,,2013-06-25 20:11:00,
2013-06-25 14:22:00,88.0,35.0,29.58,SE,133,4.0,9.0,15,0.00,,,0.00,,2013-06-25 20:22:00,
2013-06-25 14:33:00,87.0,35.0,29.58,SSE,162,2.0,6.0,16,0.00,,,0.00,,2013-06-25 20:33:00,
2013-06-25 14:42:00,87.0,35.0,29.58,SSE,162,2.0,6.0,16,0.00,,,0.00,,2013-06-25 20:42:00,
2013-06-25 14:52:00,88.0,33.0,29.58,ENE,65,0.0,3.0,14,0.00,,,0.00,,2013-06-25 20:52:00,
2013-06-25 15:01:00,88.0,35.0,29.58,SE,138,2.0,8.0,15,0.00,,,0.00,,2013-06-25 21:01:00,
2013-06-25 15:11:00,88.0,35.0,29.58,SE,138,2.0,8.0,15,0.00,,,0.00,,2013-06-25 21:11:00,
2013-06-25 15:22:00,89.0,35.0,29.58,NNE,16,4.0,9.0,15,0.00,,,0.00,,2013-06-25 21:22:00,
2013-06-25 15:34:00,88.0,38.0,29.57,NNE,21,1.0,8.0,17,0.00,,,0.00,,2013-06-25 21:34:00,
2013-06-25 15:43:00,88.0,38.0,29.57,NNE,21,1.0,8.0,17,0.00,,,0.00,,2013-06-25 21:43:00,
2013-06-25 15:53:00,89.0,34.0,29.57,ESE,120,1.0,7.0,14,0.00,,,0.00,,2013-06-25 21:53:00,
2013-06-25 16:01:00,89.0,35.0,29.56,NNE,16,2.0,9.0,15,0.00,,,0.00,,2013-06-25 22:01:00,
2013-06-25 16:11:00,89.0,35.0,29.56,NNE,16,2.0,9.0,15,0.00,,,0.00,,2013-06-25 22:11:00,
2013-06-25 16:22:00,89.0,34.0,29.56,NE,40,1.0,5.0,14,0.00,,,0.00,,2013-06-25 22:22:00,
2013-06-25 16:33:00,90.0,34.0,29.56,NNW,338,2.0,10.0,14,0.00,,,0.00,,2013-06-25 22:33:00,
2013-06-25 16:42:00,90.0,34.0,29.56,NNW,338,2.0,10.0,14,0.00,,,0.00,,2013-06-25 22:42:00,
2013-06-25 16:52:00,90.0,36.0,29.56,ESE,105,1.0,8.0,15,0.00,,,0.00,,2013-06-25 22:52:00,
2013-06-25 17:01:00,89.0,37.0,29.56,NNE,14,4.0,9.0,16,0.00,,,0.00,,2013-06-25 23:01:00,
2013-06-25 17:11:00,89.0,37.0,29.56,NNE,14,4.0,9.0,16,0.00,,,0.00,,2013-06-25 23:11:00,
2013-06-25 17:22:00,90.0,36.0,29.55,North,350,2.0,10.0,15,0.00,,,0.00,,2013-06-25 23:22:00,
2013-06-25 17:34:00,90.0,36.0,29.55,NNE,28,2.0,11.0,15,0.00,,,0.00,,2013-06-25 23:34:00,
2013-06-25 17:43:00,90.0,36.0,29.55,NNE,28,2.0,11.0,15,0.00,,,0.00,,2013-06-25 23:43:00,
2013-06-25 17:52:00,90.0,38.0,29.56,NNE,22,7.0,13.0,16,0.00,,,0.00,,2013-06-25 23:52:00,
2013-06-25 18:02:00,89.0,35.0,29.55,North,5,3.0,9.0,15,0.00,,,0.00,,2013-06-26 00:02:00,
2013-06-25 18:11:00,89.0,35.0,29.55,North,5,3.0,9.0,15,0.00,,,0.00,,2013-06-26 00:11:00,
2013-06-25 18:22:00,89.0,35.0,29.56,NW,319,4.0,9.0,15,0.00,,,0.00,,2013-06-26 00:22:00,
2013-06-25 18:33:00,88.0,36.0,29.56,North,355,2.0,10.0,16,0.00,,,0.00,,2013-06-26 00:33:00,
2013-06-25 18:42:00,88.0,36.0,29.56,North,355,2.0,10.0,16,0.00,,,0.00,,2013-06-26 00:42:00,
2013-06-25 18:52:00,87.0,35.0,29.57,NNE,15,1.0,12.0,16,0.00,,,0.00,,2013-06-26 00:52:00,
2013-06-25 19:01:00,87.0,37.0,29.57,NE,41,0.0,7.0,17,0.00,,,0.00,,2013-06-26 01:01:00,
2013-06-25 19:11:00,87.0,37.0,29.57,NE,41,0.0,7.0,17,0.00,,,0.00,,2013-06-26 01:11:00,
2013-06-25 19:22:00,87.0,38.0,29.57,NNE,18,5.0,12.0,18,0.00,,,0.00,,2013-06-26 01:22:00,
2013-06-25 19:33:00,87.0,37.0,29.58,NNE,22,4.0,8.0,17,0.00,,,0.00,,2013-06-26 01:33:00,
2013-06-25 19:43:00,87.0,37.0,29.58,NNE,22,4.0,8.0,17,0.00,,,0.00,,2013-06-26 01:43:00,
2013-06-25 19:53:00,86.0,38.0,29.58,ENE,64,0.0,6.0,18,0.00,,,0.00,,2013-06-26 01:53:00,
2013-06-25 20:02:00,85.0,38.0,29.59,SE,129,2.0,9.0,19,0.00,,,0.00,,2013-06-26 02:02:00,
2013-06-25 20:11:00,85.0,38.0,29.59,SE,129,2.0,9.0,19,0.00,,,0.00,,2013-06-26 02:11:00,
2013-06-25 20:22:00,84.0,37.0,29.59,SE,142,0.0,5.0,19,0.00,,,0.00,,2013-06-26 02:22:00,
2013-06-25 20:34:00,83.0,39.0,29.60,SSE,155,1.0,4.0,21,0.00,,,0.00,,2013-06-26 02:34:00,
2013-06-25 20:43:00,83.0,39.0,29.60,SSE,155,1.0,4.0,21,0.00,,,0.00,,2013-06-26 02:43:00,
2013-06-25 20:53:00,82.0,38.0,29.60,East,94,3.0,7.0,21,0.00,,,0.00,,2013-06-26 02:53:00,
2013-06-25 21:02:00,81.0,39.0,29.61,SSE,148,3.0,8.0,22,0.00,,,0.00,,2013-06-26 03:02:00,
2013-06-25 21:11:00,81.0,39.0,29.61,SSE,148,3.0,8.0,22,0.00,,,0.00,,2013-06-26 03:11:00,
2013-06-25 21:22:00,80.0,39.0,29.62,SE,124,0.0,7.0,23,0.00,,,0.00,,2013-06-26 03:22:00,
2013-06-25 21:33:00,80.0,39.0,29.62,ESE,118,0.0,5.0,23,0.00,,,0.00,,2013-06-26 03:33:00,
2013-06-25 21:43:00,80.0,39.0,29.62,ESE,118,0.0,5.0,23,0.00,,,0.00,,2013-06-26 03:43:00,
2013-06-25 21:52:00,79.0,39.0,29.63,SE,132,0.0,2.0,24,0.00,,,0.00,,2013-06-26 03:52:00,
2013-06-25 22:01:00,78.0,39.0,29.64,ESE,117,0.0,4.0,25,0.00,,,0.00,,2013-06-26 04:01:00,
2013-06-25 22:12:00,78.0,39.0,29.64,ESE,117,0.0,4.0,25,0.00,,,0.00,,2013-06-26 04:12:00,
2013-06-25 22:22:00,78.0,39.0,29.64,ESE,117,0.0,4.0,25,0.00,,,0.00,,2013-06-26 04:22:00,
2013-06-25 22:33:00,78.0,39.0,29.64,ESE,117,0.0,4.0,25,0.00,,,0.00,,2013-06-26 04:33:00,
2013-06-25 22:43:00,75.0,40.0,29.65,ESE,117,0.0,0.0,28,0.00,,,0.00,,2013-06-26 04:43:00,
2013-06-25 22:53:00,73.0,42.0,29.67,ESE,117,0.0,0.0,33,0.00,,,0.00,,2013-06-26 04:53:00,
2013-06-25 23:02:00,72.0,42.0,29.67,ESE,121,0.0,0.0,34,0.00,,,0.00,,2013-06-26 05:02:00,
2013-06-25 23:11:00,72.0,42.0,29.67,ESE,121,0.0,0.0,34,0.00,,,0.00,,2013-06-26 05:11:00,
2013-06-25 23:22:00,71.0,42.0,29.67,ESE,121,0.0,0.0,35,0.00,,,0.00,,2013-06-26 05:22:00,
2013-06-25 23:34:00,71.0,41.0,29.68,ESE,121,0.0,0.0,34,0.00,,,0.00,,2013-06-26 05:34:00,
2013-06-25 23:43:00,71.0,41.0,29.68,ESE,121,0.0,0.0,34,0.00,,,0.00,,2013-06-26 05:43:00,
2013-06-25 23:52:00,70.0,43.0,29.68,ESE,121,0.0,0.0,37,0.00,,,0.00,,2013-06-26 05:52:00,